Location: Newark
(10.3333°N, 37.7167°E)
Time: 01:09:32
(UTC+00:00)

LightSail 2 - Pass Details

Date: 31 January 2020
Orbit: 698 x 724 km, 24.0° (Epoch: 27 February)

Event Time Altitude Azimuth Distance (km) Brightness Sun altitude
Rises 16:47:48 0° 288° (WNW) 3,066 9.4 -18.5°
Reaches altitude 10° 16:50:14 10° 284° (WNW) 2,152 8.5 -19.1°
Maximum altitude 16:55:14 60° 205° (SSW) 803 5.5 -20.3°
Enters shadow 16:57:59 26° 134° (SE) 1,365 6.3 -20.9°
